BRTC3 EHEH-EHAM

Flight info

Callsign BRTC3
Flight time N/A
Altitude 2500
Route DCT
Aircraft SF50/L-V/N

Departure

Time 2026-04-30 14:55
Airport Eindhoven Airport (EHEH)

Arrival

Time N/A
Airport Amsterdam Airport Schiphol (EHAM)
Time Latitude Longitude Altitude Speed Heading
2026-04-30 14:40 51.45162 5.38255 72 ft 0 kts 215°
2026-04-30 14:47 51.45173 5.38241 68 ft 4 kts 339°
2026-04-30 14:47 51.45215 5.38214 68 ft 9 kts 337°
2026-04-30 14:47 51.45228 5.38205 69 ft 0 kts 328°
2026-04-30 14:48 51.45229 5.38205 69 ft 1 kts 328°
2026-04-30 14:48 51.45229 5.38204 69 ft 0 kts 328°
2026-04-30 14:49 51.45237 5.38195 70 ft 4 kts 319°
2026-04-30 14:49 51.45267 5.38138 67 ft 9 kts 307°
2026-04-30 14:49 51.45302 5.38059 71 ft 10 kts 306°
2026-04-30 14:49 51.45348 5.37953 70 ft 13 kts 304°
2026-04-30 14:50 51.45448 5.37719 74 ft 0 kts 295°
2026-04-30 14:51 51.45451 5.37695 74 ft 10 kts 260°
2026-04-30 14:51 51.45211 5.37396 71 ft 35 kts 213°
2026-04-30 14:52 51.44985 5.37133 75 ft 45 kts 212°
2026-04-30 14:52 51.44577 5.36683 71 ft 35 kts 214°
2026-04-30 14:52 51.44382 5.36466 70 ft 31 kts 216°
2026-04-30 14:53 51.44168 5.36281 67 ft 0 kts 153°
2026-04-30 14:54 51.44119 5.36452 70 ft 3 kts 43°
2026-04-30 14:55 51.44416 5.36786 71 ft 91 kts 33°
2026-04-30 14:55 51.45077 5.37446 417 ft 124 kts 39°
2026-04-30 14:55 51.46579 5.38889 1177 ft 130 kts 41°
2026-04-30 14:56 51.48294 5.38645 1794 ft 129 kts 341°
2026-04-30 14:56 51.49983 5.37379 1911 ft 147 kts 343°
2026-04-30 14:57 51.50959 5.36658 1907 ft 163 kts 342°
2026-04-30 14:57 51.53241 5.35048 1908 ft 187 kts 342°
2026-04-30 14:58 51.55622 5.33389 1901 ft 187 kts 343°
2026-04-30 14:58 51.56822 5.32547 1905 ft 188 kts 342°
2026-04-30 14:58 51.59116 5.30440 1911 ft 192 kts 333°
2026-04-30 14:59 51.61411 5.28112 1899 ft 194 kts 333°
2026-04-30 15:00 51.64808 5.24727 2073 ft 192 kts 333°
2026-04-30 15:00 51.67099 5.22448 2473 ft 197 kts 333°
2026-04-30 15:01 51.69442 5.20146 2473 ft 194 kts 333°
2026-04-30 15:01 51.70198 5.19400 2475 ft 191 kts 333°
2026-04-30 15:01 51.72843 5.16726 2478 ft 193 kts 332°
2026-04-30 15:02 51.73979 5.15565 2478 ft 193 kts 333°
2026-04-30 15:02 51.75145 5.14521 2476 ft 190 kts 342°
2026-04-30 15:03 51.78841 5.12275 2477 ft 188 kts 348°
2026-04-30 15:03 51.81320 5.11014 2491 ft 184 kts 349°
2026-04-30 15:04 51.83790 5.10097 2479 ft 182 kts 354°
2026-04-30 15:04 51.87543 5.08806 2490 ft 187 kts 356°
2026-04-30 15:05 51.91363 5.07919 2492 ft 181 kts 359°
2026-04-30 15:06 51.93854 5.07329 2479 ft 183 kts 359°
2026-04-30 15:06 51.96388 5.06733 2496 ft 186 kts 359°
2026-04-30 15:07 51.98939 5.06144 2496 ft 183 kts 359°
2026-04-30 15:07 52.01426 5.05366 2499 ft 184 kts 355°
2026-04-30 15:08 52.03497 5.04699 2500 ft 182 kts 356°
2026-04-30 15:08 52.07720 5.03378 2503 ft 186 kts 356°
2026-04-30 15:09 52.09831 5.02701 2504 ft 183 kts 356°
2026-04-30 15:09 52.12716 5.01802 2505 ft 183 kts 356°
2026-04-30 15:10 52.14800 5.01183 2504 ft 182 kts 356°
2026-04-30 15:11 52.19850 4.99366 1969 ft 191 kts 354°
2026-04-30 15:11 52.22334 4.98450 1491 ft 173 kts 353°
2026-04-30 15:12 52.26007 4.97179 1486 ft 183 kts 353°
2026-04-30 15:13 52.28340 4.95542 1389 ft 197 kts 313°
2026-04-30 15:14 52.28442 4.89542 987 ft 121 kts 189°
2026-04-30 15:14 52.26511 4.87273 1011 ft 138 kts 226°
2026-04-30 15:16 52.23760 4.81097 1005 ft 134 kts 226°
2026-04-30 15:17 52.21648 4.76151 984 ft 133 kts 249°
2026-04-30 15:18 52.24601 4.73516 755 ft 102 kts 24°
2026-04-30 15:19 52.26759 4.73813 585 ft 89 kts 28°